IQ5QD-13 Weather Reports


time (UTC)temp
C
wind
direction
speed
KPH
gust
KPH
rain 1hr
cm
rain 24hr
cm
rain mn
cm
humidity
%
barometer
mb
20260507064546 13 68 1.6 3.2 0.00 1.02 0.13 85 1009.9
20260507063521 13 72 1.6 4.8 0.00 1.02 0.13 85 1009.9
20260507062545 13 59 0.0 1.6 0.00 1.04 0.13 89 1009.7
20260507061520 12 57 0.0 1.6 0.00 1.04 0.13 91 1009.7
20260507060546 12 255 1.6 3.2 0.03 1.04 0.13 92 1009.7
20260507055609 12 158 0.0 1.6 0.03 1.07 0.13 92 1009.5
20260507054529 12 0.0 0.0 0.03 1.07 0.13 92 1009.5
20260507053553 11 275 0.0 1.6 0.03 1.09 0.13 93 1009.5
20260507052529 11 0.0 0.0 0.03 1.09 0.13 93 1009.3
20260507051544 11 0.0 0.0 0.03 1.12 0.13 93 1009.3
20260507050617 11 0.0 0.0 0.00 1.09 0.10 93 1009.3
20260507045538 10 0.0 0.0 0.00 1.12 0.10 93 1009.2
20260507044617 10 0.0 0.0 0.00 1.12 0.10 93 1009.1
20260507043538 10 0.0 0.0 0.00 1.14 0.10 93 1008.9
20260507042618 10 0.0 0.0 0.00 1.14 0.10 93 1008.9
20260507041558 10 55 0.0 1.6 0.03 1.17 0.10 93 1008.8
20260507040601 10 77 0.0 1.6 0.03 1.17 0.10 93 1008.8
20260507035537 9 81 0.0 1.6 0.03 1.19 0.10 93 1009.0
20260507034622 8 0.0 0.0 0.03 1.19 0.10 93 1008.9
20260507033534 8 109 0.0 3.2 0.03 1.22 0.10 93 1008.8
20260507032604 9 112 1.6 3.2 0.03 1.22 0.10 93 1008.8
20260507031534 8 0.0 0.0 0.00 1.22 0.08 92 1008.7
20260507030601 8 0.0 0.0 0.00 1.22 0.08 92 1008.7
20260507025542 9 0.0 0.0 0.00 1.24 0.08 92 1008.9
20260507024540 9 0.0 0.0 0.00 1.24 0.08 92 1008.9
20260507023521 9 54 0.0 1.6 0.00 1.27 0.08 92 1008.9
20260507022541 9 0.0 0.0 0.03 1.27 0.08 92 1008.8
20260507021541 9 0.0 0.0 0.03 1.30 0.08 92 1008.8
20260507020546 10 0.0 0.0 0.03 1.32 0.08 92 1008.8
20260507015610 10 0.0 0.0 0.03 1.32 0.08 92 1008.8
20260507014530 10 0.0 0.0 0.03 1.32 0.08 92 1008.7
20260507013554 10 0.0 0.0 0.03 1.35 0.08 92 1008.8
20260507012530 10 0.0 0.0 0.00 1.32 0.05 92 1008.7
20260507011553 10 0.0 0.0 0.00 1.35 0.05 92 1008.7
20260507010617 10 0.0 0.0 0.00 1.35 0.05 92 1008.8
20260507005537 10 0.0 0.0 0.00 1.37 0.05 91 1008.7
20260507004601 11 0.0 0.0 0.03 1.40 0.05 91 1008.8
20260507003534 11 0.0 0.0 0.03 1.40 0.05 91 1008.8
20260507002601 11 15 0.0 1.6 0.03 1.42 0.05 91 1008.8
20260507001534 11 0.0 0.0 0.03 1.45 0.05 91 1008.8
20260507000601 11 0.0 0.0 0.03 1.45 0.05 91 1008.6
20260506235534 11 114 1.6 3.2 0.03 1.47 0.05 91 1008.7
20260506234642 11 0.0 0.0 0.00 1.45 0.03 90 1008.6
20260506233522 11 0.0 0.0 0.00 1.47 0.03 90 1008.8
20260506232542 12 249 1.6 3.2 0.03 1.47 0.03 90 1008.8
20260506231609 12 129 3.2 3.2 0.03 1.50 0.03 89 1008.9
20260506230529 12 160 1.6 1.6 0.03 1.50 0.03 89 1008.8
20260506225033 12 0.0 0.0 0.03 1.52 0.03 88 1008.6
20260506224058 13 143 0.0 1.6 0.03 1.52 0.03 88 1008.8
20260506223018 13 105 3.2 4.8 0.00 1.50 0.00 88 1008.8
20260506222040 13 148 0.0 1.6 0.03 1.52 0.00 87 1008.7
20260506221017 13 0.0 0.0 0.03 1.52 0.00 86 1008.6
20260506220038 13 151 0.0 1.6 0.03 1.52 0.00 85 1008.6
20260506215105 13 130 3.2 4.8 0.03 1.52 1.52 85 1008.5
20260506214024 14 146 1.6 3.2 0.03 1.52 1.52 85 1008.5
20260506213046 14 159 3.2 3.2 0.03 1.52 1.52 86 1008.6
20260506212023 14 168 1.6 4.8 0.03 1.52 1.50 85 1008.4
20260506211050 14 149 1.6 3.2 0.03 1.52 1.50 86 1008.3
20260506210022 15 125 3.2 4.8 0.03 1.52 1.50 86 1008.3
20260506205040 15 131 3.2 4.8 0.03 1.52 1.50 85 1008.3
20260506204113 15 127 4.8 6.4 0.03 1.55 1.50 88 1008.1
20260506203056 15 0.0 0.0 0.05 1.55 1.50 87 1008.1
20260506202154 15 0.0 0.0 0.03 1.52 1.47 87 1008.1
20260506201034 15 0.0 0.0 0.03 1.55 1.47 86 1008.0
20260506200119 15 154 0.0 1.6 0.03 1.55 1.47 85 1007.9
20260506195033 15 167 0.0 3.2 0.05 1.55 1.47 84 1007.7
20260506194058 15 156 3.2 4.8 0.05 1.57 1.47 84 1007.5
20260506193059 15 163 1.6 1.6 0.03 1.55 1.45 83 1007.5
20260506192024 16 155 3.2 4.8 0.03 1.55 1.45 83 1007.3
20260506191041 16 169 3.2 6.4 0.05 1.57 1.45 82 1007.0
20260506190025 16 181 1.6 4.8 0.05 1.57 1.45 82 1006.8
20260506185108 16 169 3.2 6.4 0.03 1.57 1.42 81 1006.8
20260506184113 16 151 4.8 6.4 0.05 1.57 1.42 81 1006.7
20260506183037 16 141 6.4 9.7 0.05 1.57 1.42 81 1006.7
20260506182114 16 158 4.8 6.4 0.05 1.60 1.42 81 1006.7
20260506181033 16 136 6.4 9.7 0.03 1.57 1.40 80 1006.6
20260506180059 16 169 4.8 6.4 0.05 1.60 1.40 79 1006.5
20260506175018 17 194 3.2 6.4 0.05 1.60 1.40 77 1006.3
20260506174039 17 155 4.8 11.3 0.03 1.60 1.37 75 1006.4
20260506173017 17 150 6.4 9.7 0.05 1.60 1.37 74 1006.3
20260506172040 17 193 3.2 4.8 0.05 1.60 1.37 73 1006.2
20260506171018 17 187 3.2 9.7 0.05 1.60 1.37 73 1006.1
20260506170039 17 232 3.2 6.4 0.05 1.57 1.35 72 1006.3
20260506165018 18 207 8.0 11.3 0.05 1.57 1.35 70 1006.2
20260506164039 18 227 6.4 11.3 0.05 1.57 1.35 69 1006.3
20260506163106 18 204 6.4 16.1 0.05 1.57 1.32 70 1006.3
20260506162035 19 233 6.4 16.1 0.05 1.57 1.32 68 1006.3
20260506161106 19 195 6.4 11.3 0.05 1.57 1.32 66 1006.2
20260506160035 19 238 6.4 12.9 0.05 1.55 1.30 65 1006.1
20260506155105 19 211 9.7 16.1 0.05 1.57 1.30 64 1006.2
20260506154037 19 196 6.4 16.1 0.08 1.57 1.30 66 1006.0
20260506153018 19 223 9.7 16.1 0.05 1.55 1.27 69 1006.0
20260506152045 19 268 6.4 14.5 0.08 1.57 1.27 73 1006.0
20260506151106 19 232 8.0 12.9 0.08 1.57 1.27 74 1006.1
20260506150026 20 231 8.0 17.7 0.08 1.57 1.24 77 1006.0
20260506145036 20 211 8.0 16.1 0.08 1.57 1.24 78 1006.0
20260506144114 20 188 4.8 11.3 0.08 1.57 1.22 80 1005.9
20260506143041 18 219 8.0 16.1 0.08 1.57 1.22 82 1005.8
20260506142023 18 227 8.0 16.1 0.08 1.57 1.19 84 1005.8
20260506141107 18 229 11.3 20.9 0.08 1.57 1.19 83 1005.7
20260506140113 18 241 8.0 12.9 0.08 1.57 1.17 86 1005.9
20260506135035 18 144 6.4 11.3 0.08 1.60 1.17 88 1005.8
20260506134114 17 225 4.8 11.3 0.05 1.60 1.14 89 1006.0
20260506133033 16 303 1.6 4.8 0.08 1.63 1.14 89 1006.0
20260506132058 15 187 1.6 3.2 0.05 1.63 1.12 88 1006.3
20260506131052 15 238 3.2 4.8 0.08 1.65 1.12 88 1006.4
20260506130058 15 234 6.4 17.7 0.05 1.65 1.09 86 1006.5
20260506125039 13 206 1.6 4.8 0.08 1.68 1.09 86 1006.7
20260506124114 15 241 6.4 12.9 0.08 1.73 1.09 81 1006.5
20260506123031 16 185 11.3 24.1 0.08 1.73 1.07 80 1006.4
20260506122118 17 253 6.4 11.3 0.08 1.75 1.07 84 1006.2
20260506121019 17 155 3.2 6.4 0.08 1.78 1.04 84 1006.2
20260506120043 18 136 11.3 22.5 0.08 1.80 1.04 80 1006.0
20260506115019 20 158 9.7 17.7 0.08 1.83 1.02 77 1005.8
20260506114038 21 164 12.9 20.9 0.10 1.88 1.02 74 1005.8
20260506113018 21 131 11.3 22.5 0.08 1.91 0.99 75 1005.7
20260506112047 21 201 9.7 20.9 0.10 1.93 0.99 74 1005.8
20260506111106 20 132 11.3 24.1 0.08 1.96 0.97 75 1005.8
20260506110043 20 150 14.5 33.8 0.10 2.01 0.97 76 1005.9
20260506105050 20 146 14.5 29.0 0.08 2.01 0.94 76 1006.0
20260506104114 20 171 6.4 20.9 0.08 2.03 0.91 78 1006.3
20260506103033 20 169 11.3 25.7 0.08 2.06 0.91 75 1006.1
20260506102042 20 144 8.0 16.1 0.08 2.06 0.89 77 1006.1
20260506101106 20 132 12.9 27.4 0.08 2.08 0.89 76 1006.1
20260506100035 19 142 17.7 27.4 0.08 2.08 0.86 76 1006.0
20260506095106 19 149 14.5 24.1 0.08 2.13 0.86 78 1006.0
20260506094024 18 141 14.5 22.5 0.08 2.13 0.84 78 1006.0
20260506093111 18 143 17.7 25.7 0.08 2.16 0.84 79 1006.0
20260506092104 18 144 12.9 24.1 0.05 2.16 0.81 81 1005.9
20260506091051 17 129 11.3 17.7 0.08 2.18 0.81 83 1006.0
20260506090114 17 143 11.3 16.1 0.05 2.21 0.79 83 1006.0
20260506085036 17 137 12.9 22.5 0.08 2.24 0.79 83 1005.9
20260506084114 17 146 11.3 20.9 0.05 2.24 0.76 84 1005.9
20260506083035 16 148 8.0 11.3 0.08 2.26 0.76 87 1006.0
20260506082115 16 175 1.6 3.2 0.08 2.29 0.76 88 1006.1
20260506081034 16 144 3.2 9.7 0.08 2.31 0.74 89 1006.1
20260506073019 16 120 1.6 4.8 0.05 2.49 0.69 93 1006.0
20260506072106 15 119 0.0 1.6 0.08 2.51 0.69 93 1006.0
20260506071018 15 0.0 0.0 0.05 2.49 0.66 93 1005.9